Aérodrome :
LOGIN :

S'inscrire | Disclaimer

   EN    FR    IT 

 










Légende :    VFR   VFR Marginal   IFR   IFR Intensif   IFR Très Intensif
Visi : 
Plafond : 
>= 8 km
>= 3000ft
5 à 8 km
1000 à 3000 ft
1500m à 5 km
500 à 1000 ft
800 à 1500m
200 à 500 ft
< 800m
< 200 ft
Symboles :   Orages  Brouillard  Fortes neiges  Fortes précipitations  Vent > 20 kt
SIGMETs :   Divers  Orages  Givrage  Turbulence  Onde Orograph.  Cendres Volcan.







- Altitude de l'aérodrome : 93 ft
- Code IATA : HDF


EDAH - Heringsdorf

DERNIER METAR :
  • 220850Z 27004KT 2400 -SHSN BR BKN005 M01/M01 Q1026

METARs EXPIRÉS :
  • 220820Z 27006KT 2300 BR BKN002 M01/M02 Q1026
  • 220750Z 27005KT 2700 BR BKN003 M01/M01 Q1026

TAF TAF EDAH
Valide du 22 à 09h jusqu'au 22 à 18h UTC


220800Z 2209/2218 23005KT 2500 -SN BKN004
BECMG 2209/2212 06005KT 9999 BKN040
Pas de NOTAMs connus pour ce terrain.



MET'MAP, la Météo Aéronautique d'un coup d'oeil ! - Copyright ORBIFLY Décembre 2007 - Disclaimer

ORBIFLY MET'MAP TEAM :

Programmation & Développement : Alexandra Zaïnal
Conception & Développement : Baudouin d'Aumeries
Co-Programmation & Développement : Marc-Olivier Méhu
Soutien technique & logistique : Manuel Goepfert

Contact : metmap@orbifly.com




SOURCES & CREDITS :

   NOAA